Tracking 23762 objects as of 21-Oct-2021
HD Live streaming from Space Station
objects crossing your sky now

DELTA 1 DEB

Track DELTA 1 DEB now!
10-day predictions


NORAD ID: 10211
Int'l Code: 1977-065AQ
Perigee: 871.5 km
Apogee: 1,929.7 km
Inclination: 29.5 °
Period: 113.6 minutes
Semi major axis: 7771 km
RCS: 0.0969 m2 (small)
Launch date: July 14, 1977
Source: United States (US)
Launch site: AIR FORCE EASTERN TEST RANGE (AFETR)

Note: This is SATELLITE DEBRIS
aabbcc
Your satellite tracking list
Your tracking list is empty




NASA's NSSDC Master Catalog

Two Line Element Set (TLE):
1 10211U 77065AQ  21294.08863034 -.00000717  00000-0 -16089-2 0  9993
2 10211  29.4799 190.3557 0680776 288.7982  63.9939 12.67179764894836
Source of the keplerian elements: AFSPC